Flag for Norway Weather past 2 weeks in Finse, Norway

Now
17 °F

Cold.


Feels Like: 17 °F
Forecast: 10 / 34 °F
Wind: No wind

Location: Finsevatn


UV Index: 0 (Low)

Visibility: N/A


Pressure: 30.42 "Hg

Humidity: 81%

Dew point: 12 °F

Location of FinseLocation

Historic Weather in Finse

°F

Finse temperature yesterday

Maximum temperature yesterday: 36 °F (at 3:00 PM)
Minimum temperature yesterday: 10 °F (at 3:00 AM)
Average temperature yesterday: 27 °F

Past Weeks' High & Low Weather Summary

 TemperatureHumidityPressure
High39 °F (Apr 7, 6:00 PM)96% (Apr 6, 3:00 AM)30.47 "Hg (Apr 6, 3:00 AM)
Low10 °F (Apr 19, 3:00 AM)34% (Apr 18, 4:00 PM)29.21 "Hg (Apr 13, 4:00 AM)
Average29 °F82%29.85 "Hg
* Reported Midnight between Apr 4 and Apr 5 — Midnight between Apr 19 and Apr 20, Finse, Weather by CustomWeather, © 2014

Note: Actual official high and low records may vary slightly from our data, if they occured in-between our weather recording intervals... More about our weather records

Advertising

Historic Weather Conditions — Data for Previous 24 hours

 ConditionsComfort  
Time TempWeatherWind HumidityBarometerVisibility
12:00 AM
Apr 20
21 °FCold.2 mph76%30.40 "HgN/A
11:00 PM
Apr 19
25 °FCold.2 mph73%30.37 "HgN/A
10:00 PM27 °FChilly.3 mph71%30.35 "HgN/A
9:00 PM30 °FChilly.5 mph74%30.32 "HgN/A
8:00 PM30 °FChilly.3 mph75%30.32 "HgN/A
7:00 PM34 °FChilly.6 mph67%30.29 "HgN/A
6:00 PM35 °FChilly.6 mph68%30.29 "HgN/A
5:00 PM35 °FChilly.7 mph64%30.29 "HgN/A
4:00 PM35 °FChilly.8 mph60%30.28 "HgN/A
3:00 PM36 °FChilly.7 mph57%30.28 "HgN/A
2:00 PM35 °FChilly.9 mph59%30.29 "HgN/A
1:00 PM34 °FChilly.8 mph56%30.29 "HgN/A
12:00 PM34 °FChilly.7 mph55%30.29 "HgN/A
11:00 AM33 °FChilly.8 mph57%30.29 "HgN/A
10:00 AM33 °FChilly.7 mph58%30.28 "HgN/A
9:00 AM32 °FChilly.8 mph59%30.28 "HgN/A
8:00 AM29 °FChilly.6 mph57%30.30 "HgN/A
7:00 AM29 °FChilly.8 mph54%30.27 "HgN/A
6:00 AM29 °FChilly.3 mph51%30.27 "HgN/A
5:00 AM13 °FCold.1 mph77%30.42 "HgN/A
4:00 AM10 °FFrigid.1 mph81%30.47 "HgN/A
3:00 AM10 °FFrigid.1 mph81%30.47 "HgN/A
2:00 AM12 °FCold.3 mph79%30.44 "HgN/A
1:00 AM12 °FCold.2 mph79%30.43 "HgN/A
Weather by CustomWeather, © 2014

See weather overview